Showing default

HULIANWANG DIGUI-118, 66957

Orbit data source: Space-Track

HULIANWANG DIGUI-118, 66957 is a payload satellite owned by Zhongguo Xingwang (CN) in LEO that was launched on Mon, 08 Dec 2025 UTC via a CHANG ZHENG 6A launch vehicle from the Taiyaun Space Center, China (TSC). Payload-class satellites include a variety of spacecraft equipped with specific instruments for various scientific and technological missions. These include communications satellites like Starlink; space stations such as the ISS; scientific satellites like the Hubble; Earth observation satellites from companies like Planet Labs, Umbra, and HawkEye 360; GPS; miniature CubeSats for education and research; and military/defense satellites.

Loading next visibility...
Identifier
66957, 2025-287E
Orbit
LEO
Country
Flag of CNCN / PRC
Related business
Manufacturer
CAST
Mission
Operational Civil Communications
Bus & Motor
XINGWANG C, Unknown motor
Mass
~700 kg wet, ~700 kg dry
Launch date (UTC)
2025-12-08 (6 months ago)
Launch vehicle
CHANG ZHENG 6A
Launch site
Taiyaun Space Center, China (TSC)
Object type
Payload
Rocket body
Debris
Shape & HBR
Box + 2 Pan, 14.5 m
Radar Cross Section
5.935 m², Large (>1 m²)

Expand to show TLE details & history
Last TLE update: 12 hours ago

TLE from 12 hours ago
0 HULIANWANG DIGUI-118
1 66957U 25287E   26171.36018556  .00000041  00000-0  61155-4 0  9995
2 66957  86.4930 281.2550 0002113 109.8906 250.2456 13.24410775 25766
Epoch: 2026-06-20T08:38Z
TLE epoch observation values (Epoch: 2026-06-20T08:38:40.032Z)
Latitude
Longitude
-116.98773°
Altitude
1,171.353 km
Speed
7.267 km/s
True Right ascension
18h 45m 01s
True Declination
0° 00' 00"
Sunlit
Object was in full shadow at epoch
Visualization orbit readout
Latitude
Unknown
Longitude
Unknown
Altitude
Unknown
Speed
Unknown
Apparent Right ascension
Unknown
Apparent Declination
Unknown
Sunlit
N/A
Visualization observer readout
Local Sidereal Time
07:14:10
Azimuth
Unknown
Elevation
Unknown
Doppler factor
Unknown
Orbital elements
Apogee altitude
1,166.633 km
Perigee altitude
1,163.445 km
Semi-major axis
7,543.176 km
Eccentricity
0.00021
Inclination
86.493°
RAAN
281.255°
Arg. of periapsis
109.8906°
True anomaly
250.22281°
Mean anomaly
250.2456°
Eccentric anomaly
250.23421°
Mean motion
3.31293 °/min
Orbital period
108.67 mins
BSTAR
0.000061155
Loading maneuver chart data...
Computing Atmospheric mass density...
Loading historical data...
Loading historical data...
Loading historical data...
Loading historical data...
Loading historical data...
Loading historical data...
Loading historical data...

Documentation

Showing up to 5 results
|